View from above orbital plane
|
View from above satellite
|
Ground track
|
The orbit data is extracted from the following two-line orbital elements,
1 40024U 14033Q 21106.33205277 .00000369 00000-0 43781-4 0 9995
2 40024 97.9480 41.1874 0012762 21.3461 338.8287 14.90376247370865
Epoch (UTC): | 16 April 2021 07:58:09 |
Eccentricity: | 0.0012762 |
inclination: | 97.9480° |
perigee height: | 588 km |
apogee height: | 605 km |
right ascension of ascending node: | 41.1874° |
argument of perigee: | 21.3461° |
revolutions per day: | 14.90376247 |
mean anomaly at epoch: | 338.8287° |
orbit number at epoch: | 37086 |
The dashed part of the orbit path shows where the satellite is in the earth's shadow,
|
|